TimeEST,TemperatureF,Dew PointF,Humidity,Sea Level PressureIn,VisibilityMPH,Wind Direction,Wind SpeedMPH,Gust SpeedMPH,PrecipitationIn,Events,Conditions,WindDirDegrees,DateUTC
12:15 AM,15.8,15.8,100,29.94,3.0,West,12.7,16.1,N/A,,Unknown,270,2013-02-04 05:15:00
12:35 AM,15.8,15.8,100,29.95,4.0,West,17.3,25.3,N/A,,Unknown,280,2013-02-04 05:35:00
12:55 AM,15.8,15.8,100,29.94,4.0,West,11.5,19.6,N/A,,Unknown,280,2013-02-04 05:55:00
1:15 AM,15.8,15.8,100,29.95,4.0,West,13.8,24.2,N/A,,Unknown,280,2013-02-04 06:15:00
1:35 AM,15.8,15.8,100,29.95,5.0,West,13.8,17.3,N/A,,Unknown,280,2013-02-04 06:35:00
1:55 AM,15.8,14.0,93,29.95,7.0,West,15.0,-,N/A,,Unknown,280,2013-02-04 06:55:00
2:15 AM,15.8,15.8,100,29.95,5.0,West,11.5,-,N/A,,Unknown,270,2013-02-04 07:15:00
2:35 AM,15.8,15.8,100,29.96,10.0,West,12.7,18.4,N/A,,Unknown,270,2013-02-04 07:35:00
2:55 AM,15.8,14.0,93,29.96,7.0,West,11.5,18.4,N/A,,Unknown,280,2013-02-04 07:55:00
3:15 AM,15.8,14.0,93,29.96,4.0,West,16.1,20.7,N/A,,Unknown,270,2013-02-04 08:15:00
3:35 AM,15.8,14.0,93,29.96,4.0,WNW,17.3,21.9,N/A,,Unknown,290,2013-02-04 08:35:00
3:55 AM,15.8,14.0,93,29.96,7.0,West,11.5,17.3,N/A,,Unknown,280,2013-02-04 08:55:00
4:15 AM,15.8,15.8,100,29.97,5.0,West,11.5,-,N/A,,Unknown,270,2013-02-04 09:15:00
5:55 AM,15.8,14.0,93,29.99,10.0,West,11.5,17.3,N/A,,Unknown,280,2013-02-04 10:55:00
6:15 AM,15.8,15.8,100,29.99,5.0,West,12.7,-,N/A,,Unknown,270,2013-02-04 11:15:00
6:35 AM,15.8,15.8,100,30.00,10.0,West,8.1,-,N/A,,Unknown,260,2013-02-04 11:35:00
7:15 AM,15.8,12.2,86,30.00,10.0,West,10.4,-,N/A,,Unknown,260,2013-02-04 12:15:00
7:55 AM,15.8,12.2,86,30.00,10.0,West,9.2,-,N/A,,Unknown,260,2013-02-04 12:55:00
8:15 AM,15.8,12.2,86,30.00,10.0,WSW,8.1,-,N/A,,Unknown,250,2013-02-04 13:15:00
8:35 AM,15.8,12.2,86,30.00,10.0,West,8.1,-,N/A,,Unknown,260,2013-02-04 13:35:00
8:55 AM,15.8,12.2,86,29.99,10.0,WSW,6.9,-,N/A,,Unknown,250,2013-02-04 13:55:00
9:15 AM,17.6,12.2,79,29.98,10.0,WSW,12.7,16.1,N/A,,Unknown,250,2013-02-04 14:15:00
9:35 AM,17.6,12.2,79,29.98,10.0,West,10.4,-,N/A,,Unknown,260,2013-02-04 14:35:00
9:55 AM,19.4,12.2,74,29.98,10.0,West,12.7,-,N/A,,Unknown,260,2013-02-04 14:55:00
10:15 AM,19.4,14.0,80,29.97,10.0,WSW,13.8,-,N/A,,Unknown,250,2013-02-04 15:15:00
10:35 AM,19.4,15.8,86,29.96,10.0,West,11.5,-,N/A,,Unknown,260,2013-02-04 15:35:00
10:55 AM,21.2,15.8,80,29.95,10.0,West,10.4,18.4,N/A,,Unknown,280,2013-02-04 15:55:00
11:15 AM,21.2,15.8,80,29.95,10.0,West,12.7,-,N/A,,Unknown,270,2013-02-04 16:15:00
11:35 AM,21.2,15.8,80,29.95,10.0,West,13.8,17.3,N/A,,Unknown,260,2013-02-04 16:35:00
11:55 AM,21.2,15.8,80,29.94,10.0,West,10.4,17.3,N/A,,Unknown,270,2013-02-04 16:55:00
12:15 PM,21.2,15.8,80,29.93,10.0,West,9.2,20.7,N/A,,Unknown,280,2013-02-04 17:15:00
12:35 PM,21.2,17.6,86,29.93,7.0,West,10.4,-,N/A,,Unknown,270,2013-02-04 17:35:00
12:55 PM,21.2,17.6,86,29.92,4.0,West,6.9,-,N/A,,Unknown,280,2013-02-04 17:55:00
1:15 PM,23.0,19.4,86,29.91,4.0,WSW,10.4,-,N/A,,Unknown,240,2013-02-04 18:15:00
1:35 PM,24.8,19.4,80,29.91,5.0,West,8.1,-,N/A,,Unknown,270,2013-02-04 18:35:00
1:55 PM,24.8,19.4,80,29.90,4.0,West,8.1,-,N/A,,Unknown,260,2013-02-04 18:55:00
2:15 PM,24.8,19.4,80,29.90,3.0,West,8.1,-,N/A,,Unknown,270,2013-02-04 19:15:00
2:35 PM,24.8,21.2,86,29.89,1.8,West,6.9,-,N/A,,Unknown,260,2013-02-04 19:35:00
2:55 PM,23.0,21.2,93,29.88,1.8,WSW,5.8,-,N/A,,Unknown,250,2013-02-04 19:55:00
3:15 PM,24.8,21.2,86,29.88,1.5,WSW,4.6,-,N/A,,Unknown,250,2013-02-04 20:15:00
3:35 PM,23.0,21.2,93,29.87,1.0,Calm,Calm,-,N/A,,Unknown,0,2013-02-04 20:35:00
3:55 PM,23.0,23.0,100,29.87,1.5,WSW,5.8,-,N/A,,Unknown,250,2013-02-04 20:55:00
4:15 PM,23.0,23.0,100,29.86,1.2,SW,5.8,-,N/A,,Unknown,220,2013-02-04 21:15:00
4:35 PM,23.0,23.0,100,29.86,2.0,SW,3.5,-,N/A,,Unknown,230,2013-02-04 21:35:00
5:15 PM,23.0,23.0,100,29.85,1.0,Calm,Calm,-,N/A,,Unknown,0,2013-02-04 22:15:00
5:35 PM,23.0,23.0,100,29.84,1.2,Calm,Calm,-,N/A,,Unknown,0,2013-02-04 22:35:00
5:55 PM,21.2,21.2,100,29.84,2.0,Calm,Calm,-,N/A,,Unknown,0,2013-02-04 22:55:00
6:15 PM,21.2,21.2,100,29.84,1.5,Calm,Calm,-,0.01,,Unknown,0,2013-02-04 23:15:00
6:35 PM,21.2,21.2,100,29.84,2.0,Calm,Calm,-,0.01,,Unknown,0,2013-02-04 23:35:00
6:55 PM,21.2,21.2,100,29.84,2.0,Calm,Calm,-,0.02,,Unknown,0,2013-02-04 23:55:00
7:15 PM,21.2,21.2,100,29.85,2.0,Calm,Calm,-,N/A,,Unknown,0,2013-02-05 00:15:00
7:35 PM,21.2,21.2,100,29.85,2.0,Calm,Calm,-,N/A,,Unknown,0,2013-02-05 00:35:00
7:55 PM,21.2,21.2,100,29.84,2.5,Calm,Calm,-,0.01,,Unknown,0,2013-02-05 00:55:00
8:15 PM,21.2,21.2,100,29.84,5.0,Calm,Calm,-,N/A,,Unknown,0,2013-02-05 01:15:00
8:35 PM,23.0,23.0,100,29.84,10.0,Calm,Calm,-,N/A,,Unknown,0,2013-02-05 01:35:00
8:55 PM,23.0,23.0,100,29.83,10.0,Calm,Calm,-,N/A,,Unknown,0,2013-02-05 01:55:00
9:15 PM,23.0,23.0,100,29.83,10.0,Calm,Calm,-,N/A,,Unknown,0,2013-02-05 02:15:00
9:35 PM,23.0,23.0,100,29.83,10.0,Calm,Calm,-,N/A,,Unknown,0,2013-02-05 02:35:00
9:55 PM,23.0,23.0,100,29.83,10.0,Calm,Calm,-,N/A,,Unknown,0,2013-02-05 02:55:00
10:15 PM,23.0,23.0,100,29.83,10.0,Calm,Calm,-,N/A,,Unknown,0,2013-02-05 03:15:00
10:35 PM,23.0,23.0,100,29.82,10.0,Calm,Calm,-,N/A,,Unknown,0,2013-02-05 03:35:00
10:55 PM,24.8,24.8,100,29.83,10.0,Calm,Calm,-,N/A,,Unknown,0,2013-02-05 03:55:00
11:15 PM,24.8,24.8,100,29.83,10.0,Calm,Calm,-,N/A,,Unknown,0,2013-02-05 04:15:00
11:35 PM,24.8,24.8,100,29.82,7.0,Calm,Calm,-,N/A,,Unknown,0,2013-02-05 04:35:00
11:55 PM,24.8,24.8,100,29.82,10.0,Calm,Calm,-,N/A,,Unknown,0,2013-02-05 04:55:00